This is the latest recevied weather packets stored in our database for station/object CA2RRL-10. If no packets are shown the sender has not sent any weather packets the latest 10 day(s).
| Time | Temp. | Humidity | Pressure | Rain* | Wind** | Luminosity | Snow |
|---|---|---|---|---|---|---|---|
| 1777699097 | 10.56° C | 63% | 1033.3 hPa | - | - | - | - |
| 1777698197 | 11.11° C | 62% | 1033.4 hPa | - | - | - | - |
| 1777697297 | 11.11° C | 61% | 1033.5 hPa | - | - | - | - |
| 1777696397 | 11.67° C | 62% | 1033.6 hPa | - | - | - | - |
| 1777695497 | 11.67° C | 61% | 1033.8 hPa | - | - | - | - |
| 1777694597 | 11.67° C | 61% | 1033.9 hPa | - | - | - | - |
| 1777693696 | 12.22° C | 61% | 1034 hPa | - | - | - | - |
| 1777692796 | 12.22° C | 61% | 1034.1 hPa | - | - | - | - |
| 1777691896 | 12.22° C | 60% | 1034.2 hPa | - | - | - | - |
| 1777690995 | 12.78° C | 60% | 1034.1 hPa | - | - | - | - |
| 1777690095 | 12.78° C | 59% | 1034.2 hPa | - | - | - | - |
| 1777689195 | 13.33° C | 58% | 1034.1 hPa | - | - | - | - |
| 1777688295 | 13.89° C | 57% | 1034.1 hPa | - | - | - | - |
| 1777687395 | 13.89° C | 57% | 1034.2 hPa | - | - | - | - |
| 1777686495 | 13.89° C | 57% | 1034.3 hPa | - | - | - | - |
| 1777685595 | 14.44° C | 56% | 1034.3 hPa | - | - | - | - |
| 1777684695 | 14.44° C | 55% | 1034.3 hPa | - | - | - | - |
| 1777683795 | 15° C | 54% | 1034.3 hPa | - | - | - | - |
| 1777682895 | 15.56° C | 54% | 1034.3 hPa | - | - | - | - |
| 1777681995 | 15.56° C | 54% | 1034.2 hPa | - | - | - | - |
| 1777681095 | 16.11° C | 52% | 1034.3 hPa | - | - | - | - |
| 1777680195 | 16.11° C | 52% | 1034.2 hPa | - | - | - | - |
| 1777679294 | 16.67° C | 51% | 1034.2 hPa | - | - | - | - |
| 1777678394 | 17.22° C | 50% | 1034 hPa | - | - | - | - |
| 1777677494 | 17.78° C | 49% | 1034 hPa | - | - | - | - |
* Rain since midnight (hover to see other rain measurements)
** Current wind speed in m/s (hover to see current wind gust speed)